Regional Weather Roundup
Issued by NWS

Home | Current Version | Previous Version | Text Only | Print | Product List | Glossary On
Versions: 1 2 3 4 5 6 7 8 9 10 11 12 13 14 15 16 17 18 19 20 21 22 23 24 25 26 27 28 29 30 31 32 33 34 35 36 37 38 39 40 41 42 43 44 45 46 47 48 49 50
000
ASUS43 KFSD 271110
RWRSD

WEATHER ROUNDUP FOR SOUTH DAKOTA
NATIONAL WEATHER SERVICE SIOUX FALLS SD
600 AM CDT MON MAR 27 2017

NOTE: "FAIR" INDICATES FEW OR NO CLOUDS BELOW 12,000 FEET WITH NO
SIGNIFICANT WEATHER AND/OR OBSTRUCTIONS TO VISIBILITY.


SDZ001>005-009-010-012>017-271200-
NORTHWEST AND NORTH CENTRAL SOUTH DAKOTA

CITY           SKY/WX    TMP DP  RH WIND       PRES   REMARKS
BUFFALO          N/A     36  33  89 SE6       29.81S
FAITH            N/A     33  33 100 MISG      29.90R
MOBRIDGE       CLEAR     32  29  88 CALM      29.89S
$$

SDZ012>016-024>037-041>051-057-063-072>074-271200-
SOUTHWEST AND SOUTH CENTRAL SOUTH DAKOTA

CITY           SKY/WX    TMP DP  RH WIND       PRES   REMARKS
RAPID CTY ARPT FOG       27  26  96 CALM      29.89S VSB 1
PIERRE         CLOUDY    40  38  93 CALM      29.91S
CUSTER         CLOUDY    29  25  85 W3        29.88S
ELLSWORTH AFB  CLEAR     31  31 100 W5        29.88S WCI  26
PHILIP         CLOUDY    38  38 100 CALM      29.92R
PINE RIDGE     CLEAR     34  33  96 E5        29.90S FOG     WCI  30
SPEARFISH      FAIR      32  30  93 SW5       29.88S WCI  27
WINNER         FAIR      34  33  96 CALM      29.93S FOG
$$

SDZ004>011-016>023-039-040-271200-
NORTHEAST SOUTH DAKOTA

CITY           SKY/WX    TMP DP  RH WIND       PRES   REMARKS
ABERDEEN       CLOUDY    35  32  88 NE6       29.93S
WATERTOWN      CLOUDY    36  34  92 E3        29.92S
BROOKINGS      FOG       30  30 100 SE3       29.94S VSB 1/4
SISSETON         N/A     34  34 100 E3        29.94R
$$

SDZ017-020-022-023-036>040-048>070-271200-
SOUTHEAST SOUTH DAKOTA

CITY           SKY/WX    TMP DP  RH WIND       PRES   REMARKS
SIOUX FALLS    CLOUDY    40  38  93 NE3       29.95S
HURON          CLOUDY    38  36  92 S3        29.94R
CHAMBERLAIN    FOG       29  29 100 CALM      29.95R VSB 1/4
MITCHELL       PTCLDY    31  31 100 CALM      29.96R FOG
YANKTON        CLOUDY    43  39  87 CALM      29.95S
$$

ABBREVIATIONS USED IN REMARKS
   TC - TEMPERATURE IN CELSIUS
  WCI - WIND CHILL INDEX
   HX - HEAT INDEX
  VSB - VISIBILITY




USA.gov is the U.S. government's official web portal to all federal, state and local government web resources and services.